Regional Weather Roundup
Issued by NWS

Home | Current Version | Previous Version | Text Only | Print | Product List | Glossary On
Versions: 1 2 3 4 5 6 7 8 9 10 11 12 13 14 15 16 17 18 19 20 21 22 23 24 25 26 27 28 29 30 31 32 33 34 35 36 37 38 39 40 41 42 43 44 45 46 47 48 49 50
000
ASUS43 KOAX 030710
RWRNE

WEATHER ROUNDUP FOR NEBRASKA
NATIONAL WEATHER SERVICE OMAHA NE
200 AM CDT SUN MAY 03 2015

NOTES: SATELLITE DATA IS BEING USED TO AUGMENT CLOUD COVER ABOVE
       12000 FEET.
       "FAIR" INDICATES FEW OR NO CLOUDS BELOW 12,000 FEET WITH NO
       SIGNIFICANT WEATHER AND/OR OBSTRUCTIONS TO VISIBILITY.

  * THESE STATIONS DO NOT REPORT WEATHER SUCH AS RAIN...SNOW OR FOG.

NEZ001>004-019>022-054>056-030800-
NEBRASKA PANHANDLE

CITY           SKY/WX    TMP DP  RH WIND       PRES   REMARKS
SCOTTSBLUFF    MOCLDY    57  42  57 SW8       29.82S
ALLIANCE       MOCLDY    52  42  69 W6        29.80R
CHADRON        CLOUDY    47  40  76 SW8       29.77R
KIMBALL        MOCLDY    52  43  71 W14       29.87S
SIDNEY         MOCLDY    50  44  80 W10       29.87S
$$

NEZ057>060-069>072-079>082-030800-
SOUTHWEST NEBRASKA

CITY           SKY/WX    TMP DP  RH WIND       PRES   REMARKS
NORTH PLATTE   MOCLDY    51  45  79 W5        29.77R
IMPERIAL       MOCLDY    65  39  38 W10       29.81R
LEXINGTON      MOCLDY    58  48  69 W7        29.74R
MCCOOK         MOCLDY    59  44  57 NW8       29.76S
OGALLALA       CLOUDY    60  44  55 SW9       29.79F
$$

NEZ005>010-023>029-035>040-094-030800-
NORTH CENTRAL NEBRASKA

CITY           SKY/WX    TMP DP  RH WIND       PRES   REMARKS
VALENTINE      MOCLDY    57  39  51 W6        29.70F
AINSWORTH      MOCLDY    55  47  74 SW5       29.70S
BROKEN BOW     PTCLDY    62  40  44 W9        29.72S
O`NEILL        CLEAR     63  51  63 SE6       29.71F
ORD            PTCLDY    58  47  66 CALM      29.70R
THEDFORD       PTCLDY    61  42  50 W6        29.74F
$$

NEZ041-046>049-061>064-073>077-083>087-030800-
SOUTH CENTRAL NEBRASKA

CITY           SKY/WX    TMP DP  RH WIND       PRES   REMARKS
GRAND ISLAND   PTCLDY    68  51  54 S15       29.73R
AURORA         PTCLDY    65  53  64 S12       29.74F
HASTINGS       PTCLDY    67  51  56 S9        29.74S
HEBRON         PTCLDY    66  53  63 S13       29.77S
HOLDREGE       PTCLDY    64  48  55 SW10      29.75S
KEARNEY *      PTCLDY    66  48  52 S15       29.74R
YORK           PTCLDY    66  55  68 S14       29.75F
$$

NEZ011>018-030>034-042>045-030800-
NORTHEAST NEBRASKA

CITY           SKY/WX    TMP DP  RH WIND       PRES   REMARKS
NORFOLK        PTCLDY    64  53  67 SE20      29.72S
ALBION         CLEAR     60  54  82 SE17      29.72F
BLAIR          TSTM      59  56  88 E16       29.80F
COLUMBUS *     PTCLDY    61  50  67 SE13      29.77F
FREMONT        CLOUDY    62  54  75 E15G23    29.78F THUNDER
TEKAMAH        CLOUDY    69  51  52 S25       29.74R THUNDER
WAYNE          CLOUDY    65  53  66 S24       29.73R
$$

NEZ050>053-065>068-078-088>093-030800-
SOUTHEAST NEBRASKA

CITY           SKY/WX    TMP DP  RH WIND       PRES   REMARKS
LINCOLN        MOCLDY    63  53  70 E15       29.82F
OMAHA EPPLEY   TSTM      60  59  96 E10       29.83F
BEATRICE       CLOUDY    67  54  61 S3        29.79R
FALLS CITY     CLOUDY    65  53  65 S13       29.81F
NEBRASKA CITY  CLOUDY    63  52  66 NE8       29.87S THUNDER
PLATTSMOUTH    TSTM      59  56  87 NE9       29.87F
$$

NEZ044-045-051>053-067-030800-
OMAHA AREA

CITY           SKY/WX    TMP DP  RH WIND       PRES   REMARKS
OMAHA EPPLEY   TSTM      60  59  96 E10       29.83F
BLAIR          TSTM      59  56  88 E16       29.80F
FREMONT        CLOUDY    62  54  75 E15G23    29.78F THUNDER
MILLARD        CLOUDY    60  58  91 SE9       29.82F THUNDER
OFFUTT AFB     TSTM      60  58  92 SE9       29.83F
PLATTSMOUTH    TSTM      59  56  87 NE9       29.87F
WAHOO          FAIR      60  54  78 SE16      29.80S
$$



USA.gov is the U.S. government's official web portal to all federal, state and local government web resources and services.